Weather History for Farmington, MO

Change the Weather History Date:

Friday, July 12, 2013

  Actual Average Record
Temperature  
Mean Temperature 68 °F -  
Max Temperature 82 °F 84 °F 98 °F (2011)
Min Temperature 55 °F 64 °F 53 °F (1999)
Cooling Degree Days 4    
Growing Degree Days 18 (Base 50)    
Moisture  
Dew Point 56 °F    
Average Humidity 65    
Maximum Humidity 94    
Minimum Humidity 37    
Precipitation  
Precipitation 0.00 in - - ()
Sea Level Pressure  
Sea Level Pressure 30.11 in    
Wind  
Wind Speed 3 mph (East)    
Max Wind Speed 12 mph    
Max Gust Speed 16 mph    
Visibility 9 miles    
Events      
Averages and records for this station are not official NWS values.
T = Trace of Precipitation, MM = Missing Value Source: NWS Daily Summary

Daily Weather History Graph

Daily Weather History Graph

Search for Another Location

Airport:

Trip Planner

Search our weather history database for the weather conditions in past years. The results will help you decide how hot, cold, wet, or windy it might be!

Date:

Astronomy

Jul. 12, 2013 Rise Set
Actual Time 5:49 AM CDT 8:24 PM CDT
Civil Twilight 5:19 AM CDT 8:55 PM CDT
Nautical Twilight 4:41 AM CDT 9:33 PM CDT
Astronomical Twilight 3:58 AM CDT 10:15 PM CDT
Moon 10:01 AM CDT (7/12) 10:41 PM CDT (7/12)
Length of Visible Light 15h 35m
Length of Day
14h 34m
Waxing Crescent, 17% of the Moon is Illuminated
Jul 12
Waxing Crescent
Jul 15
First Quarter
Jul 22
Full
Jul 29
Last Quarter
Aug 6
New

Hourly Weather History & Observations

Time (CDT) Temp. Heat Index Dew Point Humidity Pressure Visibility Wind Dir Wind Speed Gust Speed Precip Events Conditions
12:15 AM 62.6 °F - 57.2 °F 82% 30.09 in 10.0 mi Calm Calm - N/A   Clear
12:35 AM 62.6 °F - 59.0 °F 88% 30.10 in 10.0 mi Calm Calm - N/A   Clear
12:55 AM 62.6 °F - 59.0 °F 88% 30.09 in 10.0 mi Calm Calm - N/A   Clear
1:15 AM 60.8 °F - 57.2 °F 88% 30.09 in 10.0 mi Calm Calm - N/A   Clear
1:35 AM 60.8 °F - 57.2 °F 88% 30.09 in 9.0 mi Calm Calm - N/A   Clear
1:55 AM 60.8 °F - 57.2 °F 88% 30.09 in 5.0 mi Calm Calm - N/A   Clear
2:15 AM 59.0 °F - 55.4 °F 88% 30.09 in 7.0 mi Calm Calm - N/A   Clear
2:35 AM 59.0 °F - 55.4 °F 88% 30.09 in 7.0 mi Calm Calm - N/A   Clear
2:55 AM 59.0 °F - 57.2 °F 94% 30.09 in 9.0 mi Calm Calm - N/A   Clear
3:15 AM 59.0 °F - 57.2 °F 94% 30.09 in 9.0 mi Calm Calm - N/A   Clear
3:35 AM 59.0 °F - 55.4 °F 88% 30.10 in 9.0 mi Calm Calm - N/A   Clear
3:55 AM 57.2 °F - 55.4 °F 94% 30.10 in 7.0 mi Calm Calm - N/A   Clear
4:15 AM 57.2 °F - 55.4 °F 94% 30.10 in 3.0 mi Calm Calm - N/A   Clear
4:35 AM 57.2 °F - 55.4 °F 94% 30.10 in 10.0 mi Calm Calm - N/A   Clear
4:55 AM 57.2 °F - 53.6 °F 88% 30.11 in 10.0 mi Calm Calm - N/A   Clear
5:15 AM 57.2 °F - 55.4 °F 94% 30.11 in 9.0 mi Calm Calm - N/A   Clear
5:35 AM 55.4 °F - 53.6 °F 94% 30.11 in 9.0 mi Calm Calm - N/A   Clear
5:55 AM 55.4 °F - 53.6 °F 94% 30.12 in 3.0 mi Calm Calm - N/A   Clear
6:15 AM 57.2 °F - 53.6 °F 88% 30.12 in 5.0 mi Calm Calm - N/A   Clear
6:35 AM 57.2 °F - 55.4 °F 94% 30.12 in 5.0 mi Calm Calm - N/A   Clear
6:55 AM 57.2 °F - 55.4 °F 94% 30.12 in 9.0 mi Calm Calm - N/A   Clear
7:15 AM 60.8 °F - 57.2 °F 88% 30.13 in 9.0 mi East 3.5 mph - N/A   Clear
7:35 AM 64.4 °F - 60.8 °F 88% 30.14 in 10.0 mi NE 4.6 mph - N/A   Clear
7:55 AM 66.2 °F - 59.0 °F 78% 30.15 in 10.0 mi ENE 5.8 mph - N/A   Clear
8:15 AM 68.0 °F - 59.0 °F 73% 30.15 in 10.0 mi East 5.8 mph - N/A   Clear
8:35 AM 68.0 °F - 59.0 °F 73% 30.15 in 10.0 mi East 6.9 mph - N/A   Clear
8:55 AM 69.8 °F - 59.0 °F 68% 30.15 in 10.0 mi East 5.8 mph - N/A   Clear
9:15 AM 71.6 °F - 59.0 °F 64% 30.15 in 10.0 mi East 5.8 mph - N/A   Clear
9:35 AM 73.4 °F - 57.2 °F 57% 30.15 in 10.0 mi East 6.9 mph - N/A   Clear
9:55 AM 73.4 °F - 55.4 °F 53% 30.15 in 10.0 mi ESE 10.4 mph - N/A   Clear
10:15 AM 75.2 °F - 55.4 °F 50% 30.14 in 10.0 mi East 11.5 mph - N/A   Clear
10:35 AM 75.2 °F - 55.4 °F 50% 30.15 in 10.0 mi East 11.5 mph - N/A   Clear
10:55 AM 77.0 °F - 53.6 °F 44% 30.15 in 10.0 mi ESE 11.5 mph - N/A   Clear
11:15 AM 77.0 °F - 53.6 °F 44% 30.15 in 10.0 mi ESE 11.5 mph 16.1 mph N/A   Clear
11:35 AM 77.0 °F - 55.4 °F 47% 30.15 in 10.0 mi East 8.1 mph - N/A   Clear
11:55 AM 78.8 °F - 55.4 °F 44% 30.15 in 10.0 mi ENE 8.1 mph - N/A   Clear
12:15 PM 78.8 °F - 55.4 °F 44% 30.14 in 10.0 mi East 8.1 mph - N/A   Clear
12:35 PM 78.8 °F - 57.2 °F 47% 30.13 in 10.0 mi East 10.4 mph - N/A   Clear
12:55 PM 78.8 °F - 55.4 °F 44% 30.13 in 10.0 mi ESE 6.9 mph - N/A   Clear
1:15 PM 78.8 °F - 53.6 °F 42% 30.13 in 10.0 mi ENE 9.2 mph - N/A   Clear
1:35 PM 80.6 °F 80.5 °F 55.4 °F 42% 30.12 in 10.0 mi ENE 5.8 mph - N/A   Clear
1:55 PM 80.6 °F 80.5 °F 55.4 °F 42% 30.11 in 10.0 mi ENE 8.1 mph - N/A   Clear
2:15 PM 80.6 °F 80.8 °F 57.2 °F 45% 30.11 in 10.0 mi East 8.1 mph - N/A   Clear
2:35 PM 80.6 °F 80.5 °F 55.4 °F 42% 30.10 in 10.0 mi East 5.8 mph - N/A   Clear
2:55 PM 82.4 °F 81.7 °F 55.4 °F 39% 30.10 in 10.0 mi East 5.8 mph - N/A   Clear
3:15 PM 82.4 °F 81.7 °F 55.4 °F 39% 30.10 in 10.0 mi NE 9.2 mph - N/A   Clear
3:35 PM 82.4 °F 81.4 °F 53.6 °F 37% 30.10 in 10.0 mi East 10.4 mph - N/A   Clear
3:55 PM 82.4 °F 81.7 °F 55.4 °F 39% 30.10 in 10.0 mi East 6.9 mph - N/A   Clear
4:15 PM 82.4 °F 81.7 °F 55.4 °F 39% 30.09 in 10.0 mi East 9.2 mph - N/A   Clear
4:35 PM 82.4 °F 81.7 °F 55.4 °F 39% 30.09 in 10.0 mi East 6.9 mph - N/A   Clear
4:55 PM 82.4 °F 81.7 °F 55.4 °F 39% 30.09 in 10.0 mi East 5.8 mph - N/A   Clear
5:15 PM 82.4 °F 81.4 °F 53.6 °F 37% 30.08 in 10.0 mi ESE 4.6 mph - N/A   Clear
5:35 PM 82.4 °F 81.7 °F 55.4 °F 39% 30.07 in 10.0 mi ESE 4.6 mph - N/A   Clear
5:55 PM 82.4 °F 81.7 °F 55.4 °F 39% 30.07 in 10.0 mi ESE 4.6 mph - N/A   Clear
6:15 PM 80.6 °F 80.5 °F 55.4 °F 42% 30.07 in 10.0 mi ESE 4.6 mph - N/A   Clear
6:35 PM 80.6 °F 80.5 °F 55.4 °F 42% 30.06 in 10.0 mi East 4.6 mph - N/A   Clear
6:55 PM 80.6 °F 80.8 °F 57.2 °F 45% 30.07 in 10.0 mi East 5.8 mph - N/A   Clear
7:15 PM 78.8 °F - 57.2 °F 47% 30.07 in 10.0 mi ENE 6.9 mph - N/A   Clear
7:35 PM 78.8 °F - 57.2 °F 47% 30.07 in 10.0 mi NE 4.6 mph - N/A   Clear
7:55 PM 78.8 °F - 57.2 °F 47% 30.07 in 10.0 mi ENE 3.5 mph - N/A   Clear
8:15 PM 75.2 °F - 57.2 °F 53% 30.08 in 10.0 mi Calm Calm - N/A   Clear
8:35 PM 73.4 °F - 57.2 °F 57% 30.08 in 10.0 mi NNE 3.5 mph - N/A   Clear
8:55 PM 71.6 °F - 55.4 °F 57% 30.08 in 10.0 mi Calm Calm - N/A   Clear
9:15 PM 69.8 °F - 57.2 °F 64% 30.09 in 10.0 mi Calm Calm - N/A   Clear
9:35 PM 66.2 °F - 57.2 °F 73% 30.09 in 10.0 mi Calm Calm - N/A   Clear
9:55 PM 66.2 °F - 60.8 °F 83% 30.09 in 10.0 mi Calm Calm - N/A   Clear
10:15 PM 64.4 °F - 57.2 °F 77% 30.09 in 10.0 mi Calm Calm - N/A   Clear
10:35 PM 64.4 °F - 59.0 °F 83% 30.09 in 10.0 mi Calm Calm - N/A   Clear
10:55 PM 64.4 °F - 59.0 °F 83% 30.09 in 10.0 mi Calm Calm - N/A   Clear
11:15 PM 62.6 °F - 57.2 °F 82% 30.09 in 10.0 mi Calm Calm - N/A   Clear
11:35 PM 64.4 °F - 57.2 °F 77% 30.09 in 10.0 mi Calm Calm - N/A   Clear
11:55 PM 62.6 °F - 57.2 °F 82% 30.10 in 10.0 mi Calm Calm - N/A   Clear